Regional Weather Roundup
Issued by NWS Grand Forks, ND

Home | Current Version | Previous Version | Text Only | Print | Product List | Glossary Off
Versions: 1 2 3 4 5 6 7 8 9 10 11 12 13 14 15 16 17 18 19 20 21 22 23 24 25 26 27 28 29 30 31 32 33 34 35 36 37 38 39 40 41 42 43 44 45 46 47 48 49 50

000
ASUS43 KFGF 091910
RWRFGF
PRAIRIE TO PINES  WEATHER ROUNDUP
NATIONAL WEATHER SERVICE EASTERN NORTH DAKOTA/GRAND FORKS ND
100 PM CST TUE FEB 09 2016

 **SATELLITE DATA USED TO AUGMENT SKY COVER AT AUTOMATED STATIONS**
 *****  WEATHER ACROSS EASTERN NORTH DAKOTA  *****

CITY           SKY/WX    TMP DP  RH WIND       PRES   REMARKS
GRAND FORKS    CLOUDY    12   3  67 N15       30.30F WCI  -4
GRAND FRKS AFB CLOUDY    11   2  67 NE13      30.29S WCI  -4
DEVILS LAKE    CLOUDY    17   9  70 NE7       30.25S WCI   8
FARGO          CLOUDY    14   6  70 N15       30.27F WCI  -1
WAHPETON ARPT  CLOUDY    14   7  73 NW12      30.26F WCI   0
$$

 ***** WEATHER ACROSS CENTRAL AND WESTERN NORTH DAKOTA  *****

CITY           SKY/WX    TMP DP  RH WIND       PRES   REMARKS
BISMARCK       CLOUDY    37  12  35 W8        30.20F
MINOT          MOSUNNY   37  16  42 NW6       30.17F
JAMESTOWN      CLOUDY    23   8  52 NE7       30.23S WCI  15
MINOT AFB      MOSUNNY   35  19  52 CALM      30.17F
GARRISON         N/A     33  17  51 NW6       30.18F
WILLISTON      CLOUDY    34  23  64 CALM      30.20F
DICKINSON      CLOUDY    38  22  52 NW13      30.13F
HETTINGER      CLOUDY    41  23  48 NW17      30.16F
$$

 *****  OTHER AIRPORT OBSERVATIONS IN OUR AREA  *****

CITY           SKY/WX    TMP DP  RH WIND       PRES   REMARKS
WALHALLA       FAIR       9   5  85 N9        30.32F WCI  -5
GRAFTON AIRPOR CLOUDY     9   3  78 N13       30.32F WCI  -7
VALLEY CITY AR CLOUDY    19   7  58 NE8       30.25F WCI   9
CANDO          NOT AVBL
CAVALIER APRT  MOCLDY     9   1  72 N12       30.32S WCI  -6
GWINNER        CLOUDY    23  10  58 N10       30.24F WCI  12
SHEYENNE NWR     N/A     16   5  61 N8        29.95  WCI   5
ROLLA          CLOUDY    16   9  73 NE8       30.23S WCI   5
 ***** THE ABOVE OBSERVATIONS ARE NON NWS ARE NOT QUALITY
       CONTROLLED AND MAY MIS-REPORT RAIN FOR SNOW...
$$

  *****  WEATHER ACROSS NORTHERN MINNESOTA  *****

CITY           SKY/WX    TMP DP  RH WIND       PRES   REMARKS
FLAG ISLAND    SUNNY      3  -2  78 NW15      30.21F WCI -15
WARROAD        SUNNY      5  -2  72 W8        30.22F WCI  -8
ROSEAU         SUNNY      3  -2  78 W8        30.24F WCI -10
HALLOCK        SUNNY      7   0  72 N10       30.31S WCI  -8
THF RVR FALLS  SUNNY      9   0  66 N10       30.25F WCI  -6
BAUDETTE       CLOUDY     2  -5  72 NW10      30.18F WCI -14
WASKISH        SUNNY      7  -2  66 NW10      30.17F WCI  -8
CROOKSTON      SUNNY     10   3  72 N15       30.29S WCI  -6
STEPHEN NDAWN    N/A      9   1  72 N13         N/A  WCI  -7
GREENBUSH NDAW   N/A      5  -2  72 NW8         N/A  WCI  -8
$$
  *****  WEATHER ACROSS CENTRAL AND WEST MINNESOTA  *****

CITY           SKY/WX    TMP DP  RH WIND       PRES   REMARKS
FOSSTON        SUNNY     12   0  57 NW12      30.22F WCI  -2
BEMIDJI        SUNNY      4  -4  71 NW9       30.17F WCI -11
PARK RAPIDS    SUNNY     11  -2  56 N13       30.14F WCI  -4
ELBOW LAKE     CLOUDY    12   4  70 NW15      30.21F HAZE    WCI  -4
WADENA         SUNNY     10   1  67 N15       30.16S WCI  -6
DETROIT LAKES  SUNNY     10   3  72 N16G23    30.20F WCI  -7
MOORHEAD       SUNNY     12   5  73 N16       30.27F WCI  -4
FERGUS FALLS   CLOUDY    12   5  73 N14G26    30.26S WCI  -3
MORRIS MN      CLOUDY    14   7  73 N20G25    30.21S WCI  -3
STAPLES        SUNNY     10   0  61 NW14      30.15F WCI  -5
$$
  *****  WEATHER ELSEWHERE ACROSS MINNESOTA  *****

CITY           SKY/WX    TMP DP  RH WIND       PRES   REMARKS
DULUTH         MOSUNNY    7  -5  57 NW17G23   30.00F WCI -12
INTRNTL FALLS  SUNNY      4  -6  63 N12       30.14F WCI -12
ELY            MOSUNNY    3  -2  78 NW9       30.03F WCI -11
CLOQUET        SUNNY      9  -6  52 NW17G30   30.03F WCI -10
WHEATON        PTSUNNY   16   9  73 NW15G22   30.27F WCI   1
BRAINERD       SUNNY      8  -3  61 N14       30.14F WCI  -8
HIBBING        SUNNY      4  -4  69 NW17      30.07F WCI -16
ALEXANDRIA     SUNNY     13   1  59 N15G22    30.16F WCI  -3
SAINT CLOUD    SUNNY     13   0  56 N20       30.14F WCI  -5
MINNEAPOLIS    SUNNY     15   1  53 NW18G28   30.09F WCI  -2
$$

  *****  WEATHER ACROSS SOUTH DAKOTA  *****

CITY           SKY/WX    TMP DP  RH WIND       PRES   REMARKS
SIOUX FALLS    CLOUDY    19   9  65 NW15      30.22F WCI   5
BROOKINGS      CLOUDY    18   8  65 NW14      30.19F WCI   4
WATERTOWN      CLOUDY    20   7  57 N16       30.19F WCI   6
HURON          PTSUNNY   26  10  50 NW10      30.26F WCI  16
SISSETON         N/A     18   8  65 N14       30.24F WCI   4
ABERDEEN       CLOUDY    30   9  41 NW9       30.24F WCI  22
MITCHELL       MOSUNNY   26  11  52 NW12      30.28F WCI  16
PIERRE         CLOUDY    31  11  43 S12       30.23F WCI  22
MOBRIDGE       CLOUDY    33  12  41 SW9       30.18F
RAPID CITY     CLOUDY    49  30  48 N21G28    30.17F
$$

  *****  SOME WEATHER IN NEARBY STATES *****

CITY           SKY/WX    TMP DP  RH WIND       PRES   REMARKS
GLASGOW MT       N/A    N/A N/A N/A SW6       30.17F
GREAT FALLS MT SUNNY     60  27  28 SW20      30.25F
CHEYENNE WY    SUNNY     46  23  40 NW17G30   30.30F
SCOTTSBLUFF NE SUNNY     48  31  51 NW14      30.26F
OMAHA NE       MOSUNNY   20   8  60 N17       30.27F WCI   5
DES MOINES IA  MOSUNNY   16   5  62 NW26      30.14F WCI  -3
DAVENPORT IA   CLOUDY    17   7  64 NW17G28   29.97S WCI   1
CHICAGO IL     CLOUDY    17   7  64 NW16      29.82F WCI   2
EAU CLAIRE WI  SUNNY     11  -4  51 N8G18     30.01F WCI  -1
LA CROSSE WI   SUNNY     13   0  56 NW16      30.01F WCI  -3
$$

  *****  SOME NATIONAL WEATHER *****

CITY           SKY/WX    TMP DP  RH WIND       PRES   REMARKS
LA GUARDIA NY  CLOUDY    33  23  66 NE5       29.57F
RALEIGH NC     PTSUNNY   42  23  46 W8        29.62F
ATLANTA GA     FLURRIES  35  18  49 W20G26    29.82F WCI  24
NEW ORLEANS LA MOSUNNY   56  14  19 W21G29    30.11F
OKLAHOMA CITY  PTSUNNY   51  20  29 N21G26    30.26F
ALBUQUERQUE NM SUNNY     53  19  26 VRB5      30.41F
SALT LAKE CITY SUNNY     37  26  64 W5        30.58F HAZE
LOS ANGELES CA MOSUNNY   84  26  12 NE3       30.15F
BOISE ID       CLOUDY    36  28  75 CALM      30.59F
SEATTLE WA     PTSUNNY   47  44  90 S3        30.19F
$$

*** WEATHER ACROSS MANITOBA...SASKATCHEWAN AND ONTARIO ***
                ***ONTARIO***

CITY           SKY/WX    TMP DP  RH WIND       PRES   REMARKS
GERALDTON      FLURRIES   1  -6  71 N13G22    29.90F WCI -16
THUNDER BAY    MOSUNNY    7  -6  56 N15G23    30.01S WCI -11
SIOUX LOOKOUT  FLURRIES   1  -9  60 N13G18    30.10F WCI -16
TORONTO        FLURRIES  34  28  80 S5        29.46F
BIG TROUT LK   SUNNY    -11 -20  64 NW13G18   30.20S WCI -32
PICKLE LAKE    CRYSTALS  -4 -17  54 VRB8      30.08S WCI -19
DRYDEN         SUNNY      0  -9  65 NW7       30.11F WCI -13
KENORA         NOT AVBL
$$
                *** MANITOBA***

CITY           SKY/WX    TMP DP  RH WIND       PRES   REMARKS
BRANDON        FLURRIES  10   5  79 E10       30.28F WCI  -3
DAUPHIN        MOSUNNY    5   0  78 E8        30.34F WCI  -8
ISLAND LAKE    MOSUNNY  -15 -22  70 W9        30.34F WCI -33
PILOT MOUND      N/A      9   3  78 NE6         N/A  WCI  -1
THE PAS        PTSUNNY   -8 -15  71 SE8       30.37F WCI -23
THOMPSON       MOSUNNY  -13 -22  64 SW6       30.40F WCI -27
WINNIPEG       MOSUNNY    1  -6  71 N12       30.35S WCI -15
LYNN LAKE      CLOUDY   -13 -18  77 SE5       30.31F WCI -25
CHURCHILL      CRYSTALS -24 -31  69 W12       30.43F WCI -47
GILLAM         SUNNY    -18 -27  63 W8        30.39F WCI -37
$$
                ***SASKATCHEWAN***

CITY           SKY/WX    TMP DP  RH WIND       PRES   REMARKS
ESTEVAN        CLOUDY    37  21  52 CALM      30.17F
KINDERSLEY     MOSUNNY   37  28  70 W9        30.08F
LLOYDMINSTER   PTSUNNY   37  30  75 W8        30.03F
PRINCE ALBERT  LGT SNOW  12   9  85 SE9       30.20F DRFTSNOWWCI   0
REGINA         FLURRIES  28  23  80 S8        30.17F WCI  20
YORKTON        PTSUNNY   16  10  79 N5        30.23F WCI   9
N. BATTLEFORD  CLOUDY    28  27  93 SE15      30.09F WCI  17
LA RONGE       CLOUDY     7   0  72 E7        30.21F WCI  -5
SASKATOON      CLOUDY    28  27  93 SE10      30.14F WCI  19
SWIFT CURRENT  SUNNY     45  30  57 W16       30.09F
$$
NOTE: THESE ARE AUTOMATED STATIONS WITH LIMITED QUALITY CONTROL
      "FAIR" INDICATES FEW OR NO CLOUDS BELOW 12,000 FEET WITH NO
      SIGNIFICANT WEATHER AND/OR OBSTRUCTIONS TO VISIBILITY.
      SKY/WX - SKY CONDITION AND SIGNIFICANT WEATHER.
      TMP - AIR TEMPERATURE.    DP   - DEWPOINT TEMPERATURE.
      RH  - RELATIVE HUMIDITY.  PRES - PRESSURE.
      HX  - HEAT INDEX.         WCI  - WIND CHILL INDEX.
$



USA.gov is the U.S. government's official web portal to all federal, state and local government web resources and services.